Wind_Speed
7 7 7 7 8 8 8 8 9 10 10 10 10 11 12 12 13 13 13 12 12 13 13 13 13 13 14 14 14 13 13 13 13 13 13 13 13 13 13 13 14 13 13 13
8 8 8 8 9 8 8 8 9 10 10 10 10 11 11 11 11 12 12 12 12 12 13 13 12 13 13 14 14 14 13 13 13 13 13 13 13 13 13 13 13 13 13 13
9 9 9 9 9 9 9 9 9 10 10 10 10 10 9 9 10 10 11 12 12 12 12 13 13 13 14 13 13 13 13 13 13 13 13 12 13 13 12 12 12 11 12 12
9 9 9 9 9 9 9 9 9 10 10 10 10 9 9 9 10 10 11 11 11 12 13 13 13 14 14 14 14 14 14 13 13 13 12 13 12 12 12 11 11 11 12 11
8 8 8 9 9 9 9 9 9 9 10 10 9 10 10 10 10 10 11 11 12 13 13 14 14 15 15 15 15 15 15 14 14 14 14 13 13 13 13 12 12 12 12 11
9 8 9 9 9 9 9 9 9 10 10 10 10 11 11 11 11 11 11 12 12 13 14 14 15 15 15 15 15 15 15 15 15 14 14 14 13 13 12 12 12 12 11 10
10 10 9 9 9 9 9 9 10 10 10 11 12 12 12 12 11 12 12 13 13 14 14 15 15 15 15 15 15 16 16 16 16 15 15 15 14 14 13 13 12 12 11 11
11 11 11 10 10 10 10 10 10 11 12 13 13 13 12 12 12 12 13 13 13 13 14 15 15 16 16 16 16 16 17 16 15 15 15 15 14 14 14 13 12 12 12 12
12 12 11 11 11 11 10 11 12 13 13 14 14 13 13 13 13 13 14 14 14 14 14 15 16 16 16 16 16 17 17 17 16 16 16 15 15 14 14 13 13 13 14 14
13 13 12 12 12 12 12 12 13 14 15 15 15 15 14 13 14 14 15 15 15 15 15 16 16 16 16 17 17 17 16 16 16 16 16 16 15 15 14 14 14 15 14 14
13 13 13 13 13 13 13 14 14 15 16 16 16 16 15 15 15 15 15 15 16 15 15 16 17 17 17 17 17 18 17 17 17 17 17 16 16 15 15 14 15 15 15 15
14 14 14 14 14 14 15 15 15 16 17 17 17 17 16 16 16 17 17 17 17 17 17 17 17 17 17 17 17 18 18 17 17 17 17 16 16 16 15 15 16 16 17 17
15 15 15 15 16 16 16 16 16 17 17 18 18 18 17 18 18 18 17 17 18 18 18 18 18 18 18 18 18 18 17 17 17 16 16 16 17 17 17 17 17 18 18 18
16 16 17 17 17 17 17 17 17 17 18 19 19 19 18 18 19 19 19 19 20 19 19 19 19 19 18 18 18 18 17 17 17 17 17 17 17 18 18 18 18 18 18 18
18 18 18 17 17 18 17 17 17 17 18 19 19 19 19 19 19 19 19 19 19 19 20 20 19 19 19 19 19 19 18 17 17 17 17 18 19 19 19 19 19 20 20 20
19 19 19 19 19 19 19 19 19 18 19 19 20 19 20 20 21 20 19 20 20 20 21 21 20 20 20 20 20 19 19 19 19 19 19 19 20 20 20 20 20 20 20 20
21 21 21 21 21 21 20 19 20 20 19 20 21 20 21 21 21 20 19 20 20 20 21 21 21 21 21 21 20 20 20 20 20 20 20 20 21 21 21 21 21 21 21 21
21 22 23 23 23 23 21 21 21 21 21 22 22 21 21 21 21 21 20 20 20 20 20 21 21 21 22 22 21 21 21 20 20 20 20 20 21 21 21 21 21 21 21 21
22 23 24 24 24 24 22 22 22 22 23 22 21 21 21 20 21 22 21 21 21 22 22 22 22 22 22 22 22 21 21 21 21 21 21 20 20 21 21 20 20 20 20 21
23 24 25 25 25 24 24 23 22 23 23 21 21 21 20 21 21 22 22 22 22 22 22 22 22 22 22 22 22 22 21 22 22 22 22 22 21 21 21 21 20 20 20 21
24 25 26 26 26 26 25 24 23 23 23 22 22 21 21 21 21 22 22 22 22 23 23 23 23 22 22 22 22 22 22 22 22 22 22 22 22 21 21 21 20 21 21 21
25 26 26 27 27 26 25 25 24 24 24 23 23 22 22 22 22 22 22 22 22 23 23 23 22 22 22 22 22 22 22 22 22 22 22 22 21 21 21 21 21 21 22 22
26 26 26 26 27 27 26 26 25 25 25 24 24 23 23 23 22 22 22 22 22 22 22 22 22 21 21 22 22 22 23 23 22 22 22 22 22 22 22 22 22 22 22 23
26 26 27 26 26 27 27 26 26 26 26 25 25 24 24 23 23 23 23 22 22 22 22 21 22 22 22 22 22 23 24 24 24 23 23 23 22 22 23 23 24 23 23 24
25 26 27 27 26 26 26 27 27 26 27 27 26 25 24 24 24 24 23 23 22 21 22 23 23 23 23 23 23 24 24 25 25 26 25 25 24 24 24 24 24 24 24 24
26 26 26 26 26 27 27 27 27 27 27 27 27 27 26 25 24 24 24 23 23 23 23 23 24 24 25 25 25 25 25 25 26 27 27 27 26 26 26 26 26 26 25 25
Wind_Direction
257 262 266 269 270 272 272 273 275 277 279 278 276 274 273 269 266 264 262 263 264 262 263 266 268 268 268 270 271 270 272 274 276 275 274 273 271 271 272 273 273 270 270 274
265 268 270 271 271 273 275 277 280 283 282 280 279 278 275 271 268 266 265 263 264 263 261 264 267 267 268 271 272 271 272 271 274 275 274 274 270 270 272 273 272 270 270 270
262 265 267 269 271 272 272 276 282 285 283 283 282 282 279 275 273 271 268 264 263 264 263 267 268 268 268 270 272 272 273 270 269 270 271 274 273 276 276 272 268 269 272 271
261 261 264 269 271 272 272 277 282 286 287 285 285 284 282 278 275 274 272 267 265 265 266 268 268 269 270 270 270 269 269 268 268 268 267 270 274 274 274 272 270 272 272 270
262 262 264 268 270 272 273 277 283 286 287 286 286 284 283 282 280 276 272 271 270 269 269 269 269 269 270 269 270 270 269 270 270 270 270 269 269 268 270 269 267 270 273 271
262 264 265 267 269 272 275 280 284 285 285 286 285 283 282 281 282 278 275 275 273 271 269 268 269 269 268 267 269 270 271 269 269 270 271 271 269 269 268 267 267 270 273 274
262 263 267 270 273 275 277 281 286 287 286 284 284 284 285 284 282 282 280 278 275 272 270 269 269 269 268 268 269 271 271 268 268 271 272 272 270 270 268 267 268 269 272 275
262 264 267 271 273 276 277 279 280 283 286 286 287 287 288 283 281 282 281 279 276 272 269 269 269 268 269 268 270 271 271 270 269 270 272 272 269 269 268 267 269 270 273 277
261 264 267 270 273 274 273 275 279 281 283 286 288 290 287 286 282 282 282 280 276 273 270 269 269 268 268 267 267 269 270 270 271 272 270 269 266 266 265 264 266 268 272 275
260 262 264 269 270 271 273 276 280 283 286 288 289 288 288 287 284 282 282 283 280 277 274 273 272 271 271 269 266 267 267 269 270 270 269 267 266 264 262 263 265 266 268 270
260 262 265 267 268 271 275 278 281 284 285 286 287 286 288 287 284 282 281 280 280 278 276 274 272 271 272 271 269 268 267 268 270 268 268 269 268 265 265 266 266 266 266 268
260 263 267 269 271 272 274 277 280 282 283 283 283 285 287 285 283 282 280 279 278 277 276 275 273 272 272 272 271 269 268 268 268 267 268 268 268 266 266 267 267 267 269 268
261 264 268 269 271 272 274 277 279 279 279 280 281 285 285 283 282 281 279 277 276 276 277 276 273 271 272 271 271 269 269 267 266 266 265 266 267 267 268 268 267 268 269 270
261 264 267 270 272 275 277 279 280 279 279 281 282 284 284 283 282 280 277 275 275 274 276 276 274 271 272 271 271 270 269 266 266 266 265 267 269 268 270 269 267 268 267 269
262 265 267 268 270 273 277 279 280 281 281 282 284 284 285 284 283 281 278 275 273 273 273 274 273 271 271 271 271 271 270 268 267 268 269 269 269 269 270 269 269 270 270 271
264 267 268 270 271 274 277 279 280 281 283 284 283 283 284 282 282 281 279 276 274 272 272 272 271 270 270 269 270 270 270 268 268 267 269 271 271 270 270 270 270 270 271 271
265 268 270 272 274 275 276 277 280 282 284 284 283 283 283 283 283 281 278 277 277 273 271 271 271 270 269 269 269 269 269 269 267 268 269 272 273 272 271 271 270 269 270 271
265 268 271 273 274 274 277 277 278 280 282 284 284 283 282 283 280 279 278 277 275 273 271 271 271 271 270 269 268 268 268 268 268 270 271 274 273 272 271 270 269 267 268 269
264 267 270 273 274 275 276 277 279 279 281 282 283 283 283 284 282 278 277 276 275 274 273 272 271 270 269 268 268 268 268 267 268 270 271 273 273 272 271 270 270 270 269 269
265 267 270 271 273 275 276 277 279 280 281 280 280 280 282 282 280 280 280 278 276 275 274 273 271 269 266 266 265 266 266 267 269 269 270 271 272 272 271 269 269 270 270 270
266 268 269 270 272 274 276 278 279 280 281 279 279 280 282 281 279 279 278 277 276 274 273 272 271 269 266 265 264 265 265 266 267 268 270 271 271 271 271 270 270 270 270 270
269 269 269 269 270 273 274 276 277 278 279 281 279 281 283 281 281 279 277 277 275 273 271 270 268 265 264 265 264 265 266 266 267 269 270 270 270 270 271 271 271 270 270 269
268 270 269 269 270 271 272 274 276 277 279 281 281 283 284 282 282 279 278 277 276 273 270 268 266 265 263 264 263 264 264 266 267 269 270 271 271 271 273 272 272 271 269 269
267 268 267 268 270 270 271 273 276 277 278 280 281 283 283 281 281 279 278 276 276 274 270 268 266 265 263 263 264 264 265 267 267 268 269 270 270 271 272 272 272 271 270 269
268 268 268 268 269 270 271 272 274 276 278 280 281 282 281 281 279 276 276 275 274 274 271 269 267 264 263 263 265 266 266 266 267 269 269 268 268 269 270 270 271 270 268 269
267 267 268 268 268 268 270 271 273 274 276 278 279 280 280 279 277 275 275 274 273 273 273 271 268 266 264 264 266 267 268 268 268 268 268 268 268 269 269 270 269 268 267 267
Height
5873 5875 5875 5875 5875 5876 5875 5875 5875 5874 5873 5873 5872 5872 5871 5870 5870 5870 5870 5870 5870 5870 5870 5870 5870 5869 5869 5869 5868 5868 5868 5868 5867 5867 5867 5866 5866 5865 5865 5865 5864 5864 5863 5863
5872 5873 5873 5873 5873 5873 5873 5873 5872 5871 5871 5870 5870 5869 5868 5867 5867 5867 5867 5867 5867 5867 5867 5867 5867 5866 5866 5866 5865 5865 5864 5864 5864 5864 5864 5863 5863 5862 5862 5861 5861 5860 5860 5860
5870 5871 5870 5870 5870 5870 5870 5870 5870 5869 5868 5867 5867 5867 5866 5865 5865 5864 5864 5864 5864 5864 5864 5864 5863 5863 5863 5862 5862 5861 5861 5861 5861 5860 5860 5860 5859 5859 5859 5858 5857 5857 5857 5856
5867 5867 5868 5868 5868 5868 5868 5867 5867 5866 5866 5865 5865 5865 5864 5863 5862 5862 5861 5861 5861 5860 5860 5860 5860 5860 5859 5859 5859 5858 5858 5857 5857 5857 5857 5857 5856 5856 5855 5855 5854 5854 5853 5853
5865 5865 5865 5865 5865 5865 5865 5865 5864 5864 5863 5863 5862 5862 5862 5860 5859 5859 5858 5858 5857 5857 5857 5857 5856 5856 5856 5855 5855 5855 5855 5854 5854 5853 5853 5853 5853 5853 5852 5851 5851 5850 5850 5849
5862 5862 5862 5863 5863 5862 5862 5862 5862 5861 5861 5861 5860 5860 5859 5857 5857 5856 5855 5854 5854 5854 5853 5853 5852 5852 5852 5851 5851 5851 5851 5850 5850 5850 5849 5849 5849 5849 5849 5848 5848 5847 5847 5847
5860 5860 5860 5860 5860 5860 5860 5860 5860 5859 5859 5858 5857 5856 5856 5854 5853 5852 5852 5851 5850 5849 5849 5849 5848 5848 5848 5848 5847 5847 5847 5846 5846 5846 5846 5845 5845 5845 5845 5845 5845 5844 5844 5844
5857 5857 5857 5857 5857 5857 5857 5858 5858 5858 5857 5855 5854 5853 5853 5851 5850 5849 5848 5847 5846 5846 5845 5845 5844 5844 5844 5844 5844 5843 5843 5842 5842 5842 5842 5841 5841 5842 5842 5841 5841 5841 5841 5841
5853 5854 5854 5854 5854 5854 5854 5854 5854 5854 5852 5852 5851 5850 5849 5847 5846 5845 5844 5843 5842 5841 5841 5840 5840 5840 5840 5839 5839 5839 5838 5838 5838 5838 5838 5838 5838 5838 5838 5838 5838 5838 5838 5838
5849 5850 5851 5850 5850 5850 5851 5850 5850 5849 5848 5847 5847 5845 5845 5843 5842 5841 5840 5839 5838 5837 5837 5836 5836 5835 5835 5835 5835 5834 5834 5834 5833 5833 5833 5833 5833 5834 5834 5834 5834 5834 5834 5834
5846 5847 5847 5847 5846 5846 5847 5846 5845 5844 5844 5843 5842 5843 5841 5839 5838 5837 5836 5835 5834 5833 5833 5832 5831 5831 5830 5830 5830 5830 5830 5829 5829 5829 5829 5829 5829 5829 5829 5830 5830 5830 5830 5830
5841 5842 5842 5843 5842 5842 5842 5841 5841 5841 5839 5838 5837 5839 5836 5834 5833 5832 5831 5831 5830 5829 5828 5827 5827 5826 5826 5825 5825 5825 5825 5825 5825 5825 5825 5825 5825 5825 5825 5825 5825 5825 5825 5825
5837 5838 5838 5838 5840 5838 5837 5837 5836 5835 5834 5833 5833 5834 5831 5829 5828 5827 5826 5826 5825 5824 5824 5823 5822 5822 5821 5821 5820 5820 5820 5820 5820 5820 5820 5820 5820 5820 5820 5820 5820 5820 5820 5820
5832 5833 5834 5834 5833 5833 5832 5832 5831 5830 5829 5828 5828 5827 5826 5824 5823 5822 5821 5820 5819 5819 5819 5818 5817 5816 5816 5816 5816 5816 5815 5815 5815 5815 5815 5815 5815 5815 5815 5815 5815 5815 5815 5815
5827 5828 5827 5827 5827 5827 5827 5826 5825 5824 5823 5823 5822 5821 5820 5818 5817 5816 5815 5814 5814 5813 5813 5812 5812 5811 5811 5811 5810 5810 5810 5810 5810 5810 5810 5810 5810 5810 5810 5810 5810 5810 5810 5810
5821 5822 5822 5822 5822 5821 5821 5820 5819 5818 5817 5816 5815 5815 5814 5812 5811 5810 5809 5808 5807 5807 5806 5806 5805 5805 5805 5805 5805 5805 5805 5805 5805 5805 5805 5804 5804 5804 5804 5804 5804 5804 5804 5804
5815 5816 5816 5816 5815 5815 5815 5815 5813 5812 5811 5810 5808 5809 5806 5805 5804 5803 5803 5802 5801 5800 5800 5799 5799 5799 5799 5799 5799 5799 5799 5799 5799 5799 5799 5799 5798 5798 5798 5798 5798 5798 5798 5798
5809 5809 5809 5809 5809 5808 5811 5808 5807 5806 5805 5803 5801 5801 5800 5799 5798 5797 5796 5795 5794 5793 5793 5792 5792 5792 5792 5792 5792 5792 5793 5793 5793 5793 5793 5793 5792 5792 5792 5792 5792 5792 5792 5791
5802 5802 5802 5802 5801 5801 5803 5801 5800 5799 5798 5796 5795 5794 5793 5792 5791 5790 5789 5788 5787 5786 5786 5785 5785 5785 5785 5785 5785 5786 5786 5786 5787 5787 5787 5787 5786 5786 5786 5786 5786 5785 5785 5785
5795 5795 5795 5795 5794 5794 5796 5794 5793 5792 5791 5789 5788 5787 5786 5785 5784 5784 5782 5781 5780 5779 5778 5778 5778 5777 5778 5778 5778 5779 5779 5780 5780 5780 5780 5780 5780 5780 5779 5779 5779 5779 5779 5779
5788 5787 5787 5787 5786 5786 5787 5786 5786 5786 5784 5783 5781 5780 5779 5778 5776 5775 5774 5773 5772 5772 5771 5770 5770 5770 5770 5771 5771 5772 5772 5773 5773 5773 5773 5773 5773 5773 5773 5773 5773 5773 5772 5772
5780 5780 5780 5779 5779 5781 5779 5778 5778 5777 5776 5775 5774 5773 5772 5771 5769 5768 5767 5765 5764 5764 5764 5763 5762 5762 5763 5763 5764 5765 5765 5766 5766 5766 5766 5766 5766 5766 5766 5766 5766 5766 5766 5765
5772 5772 5771 5772 5773 5772 5771 5770 5770 5769 5768 5768 5767 5766 5765 5763 5762 5761 5760 5759 5758 5757 5756 5756 5756 5756 5756 5757 5757 5758 5758 5759 5759 5760 5760 5759 5759 5759 5759 5759 5759 5758 5758 5758
5763 5763 5763 5763 5763 5763 5762 5762 5762 5761 5760 5760 5759 5758 5757 5756 5755 5754 5752 5752 5751 5750 5749 5749 5749 5749 5750 5750 5750 5751 5751 5752 5752 5752 5752 5752 5752 5752 5751 5751 5751 5751 5751 5751
5755 5754 5754 5754 5755 5754 5754 5754 5754 5753 5752 5752 5751 5750 5749 5748 5747 5746 5745 5744 5743 5743 5743 5742 5742 5742 5743 5743 5743 5744 5744 5744 5744 5744 5744 5744 5744 5744 5744 5743 5743 5743 5743 5743
5746 5746 5746 5746 5746 5746 5746 5746 5745 5745 5744 5743 5743 5742 5741 5740 5739 5738 5737 5737 5736 5736 5735 5735 5735 5735 5735 5735 5736 5736 5735 5735 5735 5735 5735 5735 5735 5735 5735 5735 5735 5734 5734 5734